Total_Precipitation_Accumulation
0.00 0.00 0.01 0.01 0.01 0.02 0.02 0.05 0.12 0.20 0.13 0.13 0.24 0.44 0.53 0.61 0.67 0.83 0.99 0.98 1.05 1.16 1.51 1.95 2.42 2.94 3.58 4.43 5.34 5.65 5.33 4.75 4.25 3.75 3.15 2.65 2.36 2.14 2.05 1.79 1.47 1.34 1.30 1.28
0.01 0.02 0.02 0.02 0.02 0.04 0.05 0.07 0.12 0.16 0.11 0.13 0.21 0.43 0.65 0.78 0.87 0.85 0.90 0.98 0.96 1.17 1.57 2.06 2.63 3.05 3.39 3.90 4.63 4.83 4.40 3.77 3.17 2.78 2.53 2.31 2.18 1.86 1.65 1.57 1.42 1.18 1.15 1.16
0.01 0.03 0.02 0.02 0.02 0.05 0.07 0.08 0.12 0.15 0.08 0.13 0.20 0.51 0.81 0.95 0.80 0.65 0.57 0.67 0.72 0.90 1.41 2.11 2.61 2.90 3.18 3.37 3.34 3.39 3.18 2.66 2.34 2.18 2.08 1.99 2.01 1.81 1.54 1.39 1.22 1.03 0.96 0.95
0.01 0.02 0.01 0.02 0.03 0.04 0.07 0.05 0.05 0.05 0.07 0.21 0.30 0.77 1.05 0.97 0.83 0.65 0.50 0.50 0.54 0.77 1.24 1.97 2.23 2.30 2.39 2.50 2.30 2.28 2.31 2.11 2.00 1.90 1.81 1.64 1.40 1.29 1.23 1.21 1.14 1.02 0.92 0.86
0.02 0.02 0.02 0.02 0.03 0.04 0.05 0.04 0.04 0.07 0.11 0.25 0.43 0.74 1.05 0.92 0.92 0.68 0.49 0.44 0.52 0.64 0.92 1.26 1.29 1.40 1.51 1.62 1.66 1.80 2.01 1.99 1.86 1.81 1.84 1.80 1.46 1.28 1.23 1.21 1.21 1.09 0.95 0.86
0.04 0.04 0.03 0.03 0.02 0.03 0.04 0.05 0.11 0.23 0.34 0.66 0.67 0.73 1.07 0.95 0.76 0.52 0.42 0.44 0.39 0.44 0.61 0.81 0.86 0.89 0.97 1.04 1.15 1.33 1.70 1.83 1.73 1.66 1.68 1.63 1.52 1.45 1.32 1.15 1.06 1.02 0.96 0.93
0.10 0.08 0.08 0.06 0.05 0.06 0.05 0.09 0.26 0.60 1.00 1.12 0.69 0.71 1.01 0.66 0.44 0.33 0.28 0.30 0.33 0.42 0.51 0.64 0.79 0.81 0.75 0.73 0.81 0.96 1.21 1.33 1.36 1.42 1.51 1.55 1.57 1.52 1.34 1.19 1.05 0.99 0.90 0.88
0.14 0.15 0.11 0.07 0.05 0.06 0.07 0.09 0.18 0.36 0.47 0.59 0.59 0.97 1.10 0.57 0.37 0.27 0.20 0.21 0.29 0.35 0.37 0.41 0.51 0.51 0.50 0.55 0.58 0.67 0.81 0.93 1.02 1.12 1.24 1.34 1.35 1.32 1.22 1.23 1.13 1.02 0.91 0.87
0.06 0.06 0.04 0.04 0.06 0.06 0.06 0.06 0.07 0.08 0.14 0.36 0.65 0.89 0.82 0.51 0.34 0.24 0.19 0.16 0.19 0.21 0.22 0.23 0.24 0.25 0.30 0.38 0.49 0.58 0.66 0.74 0.82 0.90 1.04 1.15 1.18 1.17 1.19 1.20 1.10 1.03 1.03 0.95
0.03 0.03 0.03 0.04 0.05 0.07 0.07 0.06 0.06 0.05 0.15 0.33 0.60 0.89 0.90 0.59 0.41 0.30 0.21 0.18 0.21 0.21 0.21 0.19 0.17 0.16 0.17 0.21 0.35 0.50 0.56 0.68 0.80 0.85 0.86 0.90 1.05 1.06 1.08 1.08 1.02 1.07 1.06 1.01
0.02 0.02 0.02 0.03 0.05 0.07 0.06 0.06 0.06 0.06 0.08 0.19 0.44 0.67 0.57 0.41 0.27 0.23 0.20 0.20 0.24 0.25 0.24 0.17 0.15 0.14 0.15 0.16 0.25 0.36 0.45 0.56 0.66 0.69 0.72 0.85 0.95 0.96 0.94 0.95 0.92 0.95 0.95 0.95
0.03 0.02 0.02 0.06 0.07 0.07 0.06 0.06 0.07 0.09 0.09 0.13 0.24 0.34 0.27 0.27 0.22 0.21 0.21 0.23 0.29 0.36 0.33 0.24 0.20 0.17 0.19 0.19 0.20 0.27 0.31 0.35 0.40 0.49 0.56 0.69 0.84 0.84 0.83 0.85 0.93 0.97 0.92 0.85
0.03 0.02 0.04 0.14 0.20 0.15 0.08 0.06 0.09 0.10 0.10 0.12 0.27 0.40 0.26 0.22 0.26 0.29 0.25 0.29 0.30 0.29 0.30 0.39 0.35 0.22 0.20 0.17 0.18 0.22 0.23 0.27 0.32 0.39 0.46 0.56 0.70 0.80 0.83 0.86 0.90 0.95 0.94 0.90
0.05 0.04 0.05 0.16 0.22 0.22 0.17 0.13 0.12 0.12 0.12 0.11 0.19 0.35 0.28 0.25 0.33 0.34 0.26 0.29 0.29 0.28 0.28 0.44 0.48 0.26 0.20 0.20 0.20 0.22 0.24 0.28 0.31 0.36 0.46 0.55 0.64 0.76 0.86 0.90 0.91 0.94 0.98 0.96
0.06 0.06 0.05 0.05 0.10 0.16 0.19 0.15 0.13 0.10 0.10 0.12 0.14 0.23 0.30 0.40 0.40 0.34 0.33 0.36 0.30 0.32 0.30 0.29 0.33 0.25 0.22 0.23 0.23 0.24 0.26 0.31 0.33 0.40 0.48 0.55 0.64 0.69 0.76 0.88 0.93 0.99 1.01 0.98
0.09 0.08 0.07 0.06 0.10 0.12 0.13 0.16 0.12 0.08 0.07 0.08 0.11 0.20 0.30 0.35 0.41 0.39 0.33 0.31 0.35 0.40 0.34 0.35 0.39 0.36 0.33 0.33 0.32 0.26 0.30 0.38 0.46 0.55 0.59 0.62 0.69 0.76 0.77 0.81 0.84 0.95 1.01 1.07
0.16 0.16 0.16 0.15 0.15 0.15 0.16 0.15 0.11 0.09 0.10 0.11 0.12 0.19 0.27 0.39 0.44 0.46 0.45 0.40 0.42 0.51 0.50 0.59 0.65 0.56 0.47 0.41 0.38 0.37 0.43 0.49 0.55 0.64 0.76 0.82 0.85 0.89 0.91 0.94 0.95 1.01 1.16 1.25
0.25 0.26 0.23 0.21 0.24 0.28 0.18 0.14 0.13 0.11 0.13 0.14 0.18 0.26 0.33 0.46 0.50 0.54 0.62 0.60 0.54 0.51 0.55 0.63 0.68 0.67 0.63 0.58 0.53 0.54 0.59 0.65 0.77 0.88 1.00 1.10 1.13 1.19 1.27 1.33 1.30 1.33 1.41 1.50
0.27 0.36 0.34 0.32 0.38 0.32 0.24 0.21 0.20 0.21 0.26 0.28 0.36 0.51 0.59 0.59 0.69 0.80 0.73 0.64 0.61 0.61 0.61 0.72 0.70 0.67 0.68 0.78 0.78 0.75 0.77 0.83 0.99 1.14 1.26 1.34 1.38 1.44 1.49 1.50 1.58 1.67 1.78 1.81
0.32 0.34 0.43 0.39 0.44 0.45 0.41 0.36 0.35 0.42 0.70 0.60 0.64 0.66 0.63 0.62 0.83 0.83 0.63 0.57 0.58 0.59 0.67 0.75 0.78 0.76 0.82 0.97 0.98 0.98 1.06 1.14 1.17 1.19 1.29 1.45 1.61 1.72 1.71 1.74 1.85 2.01 2.15 2.13
0.55 0.55 0.51 0.46 0.49 0.45 0.44 0.43 0.49 0.83 1.11 0.91 0.86 0.80 0.79 0.86 0.87 0.85 0.68 0.56 0.55 0.57 0.63 0.72 0.76 0.81 0.84 0.97 1.07 1.20 1.35 1.38 1.38 1.40 1.45 1.54 1.69 1.84 1.87 1.92 1.96 2.09 2.22 2.21
0.76 0.77 0.74 0.69 0.78 0.78 0.52 0.56 0.83 1.05 0.89 0.92 1.03 1.07 1.04 0.98 0.85 0.74 0.65 0.59 0.54 0.52 0.53 0.61 0.74 0.82 0.87 0.99 1.19 1.33 1.43 1.52 1.58 1.63 1.76 1.78 1.84 1.83 1.79 1.90 1.98 2.07 2.18 2.16
0.88 0.88 0.89 0.91 0.98 0.87 0.69 0.76 0.77 0.76 0.86 0.92 0.97 1.08 1.10 1.03 1.03 0.88 0.78 0.73 0.63 0.57 0.56 0.60 0.70 0.80 0.86 0.95 1.11 1.37 1.42 1.46 1.51 1.60 1.68 1.78 1.81 1.83 1.83 1.90 1.99 2.11 2.14 2.10
0.91 0.85 0.92 1.04 1.04 0.93 0.86 0.88 0.86 0.84 0.90 0.90 0.93 0.96 0.97 0.96 1.04 1.00 0.85 0.70 0.63 0.59 0.54 0.57 0.65 0.76 0.81 0.78 0.85 0.98 1.07 1.14 1.21 1.30 1.39 1.44 1.54 1.64 1.79 1.96 1.98 2.04 2.11 2.14
0.90 0.87 0.96 1.19 1.27 1.27 1.17 1.09 1.06 0.98 1.05 1.09 1.02 0.99 0.97 0.84 0.85 0.87 0.75 0.61 0.53 0.49 0.46 0.50 0.60 0.63 0.65 0.70 0.68 0.71 0.78 0.96 1.09 1.13 1.19 1.29 1.41 1.53 1.69 1.89 1.99 1.90 1.91 2.02
1.00 0.95 0.98 1.19 1.20 1.35 1.37 1.19 1.10 1.01 1.05 1.08 1.03 0.95 0.88 0.76 0.68 0.60 0.52 0.46 0.45 0.42 0.44 0.50 0.56 0.56 0.55 0.62 0.63 0.63 0.73 0.93 1.06 1.08 1.10 1.14 1.18 1.29 1.42 1.56 1.65 1.58 1.39 1.41